sat.trackr.live / text

‹ back to catalog

NPSAT1

NORAD 44340 · 2019-036B

PAYLOAD ACTIVE UNKNOWN

§ Identity

Operator
Country
US
Launch date
2019-06-25
Launch site
AFETR
Launch vehicle
Mass (kg)
RCS (m²)

External: N2YO · Heavens-Above · Gunter

§ Orbital elements

Epoch: 2026-05-24T21:42:00.544608Z

Period
97.67 min
Inclination
24.0004°
Eccentricity
0.0007609
Mean motion
14.74326798 rev/d
Perigee alt
641.9 km
Apogee alt
652.6 km
Semi-major
7,025.4 km
B*
6.8067e-4
RAAN
9.3698°
Arg perigee
308.3006°
Mean anomaly
51.6806°
Rev number
36,905

§ Raw data

NPSAT11 44340U 19036B   26144.90417297  .00004856  00000+0  68067-3 0  99922 44340  24.0004   9.3698 0007609 308.3006  51.6806 14.74326798369054

JSON: /api/v1/satellites/44340 · /tle

For live sub-satellite position, see the globe view (requires WebGL).

§ Visibility from observer

Set your observer location to see the next 7 days of passes ≥ 10°. The values pass through the URL so the page stays shareable.

No JS? Fill the form by hand. The geolocation button needs JavaScript.

§ Radio — SatNOGS DB

ModeDescriptionDownlinkUplink
CERTO CERTO 2 400.032 MHz

1 transmitter · refreshed weekly from db.satnogs.org